Location: Banff
(51.1670°N, 115.5670°W)
Time: 05:43:39
(UTC-06:00)

Amateur Radio Satellites - All Passes

Search period start: 24 April 2014 05:13
Search period end: 25 April 2014 05:13
Location: Banff, 51.1670°N, 115.5670°W

Satellite Date Start Highest point End Downlink Frequencies (MHz)
Time Altitude Azimuth
KITSAT 1 24 Apr 05:17:05 05:24:53 48° 325° (NW) 05:32:44 435.175 FM
RS-15 24 Apr 05:34:51 05:42:25 21° 99° (E) 05:49:49 29.354 - 29.394 USB, Beacon 29.352 USB
PCSat 24 Apr 05:46:30 05:49:41 15° 7° (N) 05:52:51 145.825 MHz
Uribyol 2 24 Apr 05:49:20 05:52:55 19° 305° (NW) 05:56:29 436.500 FM
AO-Echo 24 Apr 05:56:43 05:59:49 17° 305° (NW) 06:02:52 ?
TMSAT-1 24 Apr 05:57:49 06:02:57 51° 293° (WNW) 06:08:02 436.925 FM
JAS-1B 24 Apr 05:59:35 06:05:18 86° 106° (ESE) 06:11:14 435.800 - 435.900 CW/SSB
STRAND 1 24 Apr 06:08:18 06:12:27 26° 59° (ENE) 06:16:36 ?
Uosat F 24 Apr 06:18:12 06:23:14 79° 288° (WNW) 06:28:14 435.120 FM
AO-7 24 Apr 06:23:07 06:31:24 65° 105° (ESE) 06:39:41 29.400 - 29.500 MHz
MaSat-1 24 Apr 06:25:40 06:28:33 89° 238° (WSW) 06:31:57 437.345 MHz
AO-27 24 Apr 06:34:36 06:35:16 10° 314° (NW) 06:35:56 436.795 MHz FM
Sapphire 24 Apr 06:45:49 06:49:44 20° 21° (NNE) 06:53:38 437.095 MHz 1200 baud AX-25 AFSK
Gurwin Techsat 1B 24 Apr 06:53:58 06:57:20 17° 307° (NW) 07:00:41 435.225 FM
AO-40 24 Apr 07:05:31 11:43:51 25° 172° (S) 14:24:05 Beacon 2401.320
JAS-2 24 Apr 07:10:23 07:11:53 11° 84° (E) 07:13:25 435.800 - 435.900 CW/SSB, 435.910 FM
KITSAT 1 24 Apr 07:15:32 07:22:24 29° 353° (N) 07:29:16 435.175 FM
Hamsat 24 Apr 07:18:19 07:22:04 27° 93° (E) 07:25:47 145.90 MHz
PCSat 24 Apr 07:30:14 07:34:56 28° 33° (NNE) 07:39:36 145.825 MHz
TMSAT-1 24 Apr 07:40:17 07:41:44 11° 313° (NW) 07:43:11 436.925 FM
RS-15 24 Apr 07:41:38 07:52:46 72° 123° (ESE) 08:03:37 29.354 - 29.394 USB, Beacon 29.352 USB
STRAND 1 24 Apr 07:46:18 07:51:20 58° 259° (WSW) 07:56:23 ?
JAS-1B 24 Apr 07:51:27 07:55:22 19° 308° (NW) 07:59:19 435.800 - 435.900 CW/SSB
Uosat F 24 Apr 07:58:24 08:01:17 16° 308° (NW) 08:04:09 435.120 FM
AO-7 24 Apr 08:16:20 08:23:52 40° 307° (NW) 08:31:24 29.400 - 29.500 MHz
SO-67 24 Apr 08:23:50 08:26:43 23° 94° (E) 08:29:34 435.3500 MHz FM
Sapphire 24 Apr 08:29:04 08:34:24 52° 45° (NE) 08:39:41 437.095 MHz 1200 baud AX-25 AFSK
JAS-2 24 Apr 08:52:33 08:57:58 66° 103° (ESE) 09:03:57 435.800 - 435.900 CW/SSB, 435.910 FM
Hamsat 24 Apr 08:54:05 08:58:10 40° 292° (WNW) 09:02:15 145.90 MHz
HO-68 24 Apr 09:03:45 09:05:35 11° 80° (E) 09:07:24 435.675 MHz FM
Oscar 10/S400 24 Apr 09:09:27 10:14:20 54° 189° (S) 17:58:09 145.825 - 145.975 CW/USB, Beacon 145.810 USB
KITSAT 1 24 Apr 09:13:01 09:20:20 35° 22° (NNE) 09:27:37 435.175 FM
PCSat 24 Apr 09:13:31 09:18:58 82° 235° (SW) 09:24:24 145.825 MHz
RS-15 24 Apr 09:54:58 10:05:47 53° 331° (NNW) 10:16:28 29.354 - 29.394 USB, Beacon 29.352 USB
SO-67 24 Apr 09:56:48 09:59:55 30° 292° (WNW) 10:03:00 435.3500 MHz FM
Saudisat 1A 24 Apr 09:58:25 10:00:38 14° 111° (ESE) 10:02:52 436.775 MHz
AO-7 24 Apr 10:10:17 10:14:30 15° 332° (NNW) 10:18:44 29.400 - 29.500 MHz
Sapphire 24 Apr 10:12:48 10:17:41 35° 246° (WSW) 10:22:32 437.095 MHz 1200 baud AX-25 AFSK
JAS-2 24 Apr 10:38:28 10:42:47 25° 301° (WNW) 10:47:23 435.800 - 435.900 CW/SSB, 435.910 FM
Oscar 11 24 Apr 10:47:06 10:50:38 24° 93° (E) 10:54:10 145.825 FM, Beacon 2401.500 USB
HO-68 24 Apr 10:47:56 10:55:00 54° 101° (E) 11:02:00 435.675 MHz FM
FUNcube-1 24 Apr 10:55:19 10:55:53 10° 85° (E) 10:56:27 145.950 - 145.970 MHz USB
PCSat 24 Apr 10:58:22 11:01:35 16° 255° (WSW) 11:04:47 145.825 MHz
KITSAT 1 24 Apr 11:08:51 11:17:02 78° 48° (NE) 11:25:07 435.175 FM
Saudisat 1A 24 Apr 11:35:05 11:39:33 81° 130° (SE) 11:44:02 436.775 MHz
RS-15 24 Apr 12:10:43 12:20:55 41° 4° (N) 12:31:06 29.354 - 29.394 USB, Beacon 29.352 USB
Oscar 11 24 Apr 12:22:53 12:27:03 45° 291° (WNW) 12:31:13 145.825 FM, Beacon 2401.500 USB
FUNcube-1 24 Apr 12:28:43 12:33:01 79° 104° (ESE) 12:37:24 145.950 - 145.970 MHz USB
HO-68 24 Apr 12:35:58 12:42:34 41° 302° (WNW) 12:49:09 435.675 MHz FM
AO-27 24 Apr 12:59:22 13:02:17 15° 51° (NE) 13:05:12 436.795 MHz FM
Oscar 19 24 Apr 12:59:33 13:03:35 24° 58° (ENE) 13:07:38 437.125 CW, 437.150 USB
KITSAT 1 24 Apr 13:04:51 13:11:48 33° 251° (WSW) 13:18:43 435.175 FM
ITAMSAT 1 24 Apr 13:08:08 13:11:25 17° 53° (NE) 13:14:43 435.822 SSB
Oscar 16 24 Apr 13:08:24 13:12:45 29° 60° (ENE) 13:17:09 437.025 USB, Beacon 2401.1428
Saudisat 1A 24 Apr 13:15:52 13:19:39 26° 331° (NNW) 13:23:27 436.775 MHz
AO-7 24 Apr 13:48:58 13:53:04 15° 27° (NNE) 13:57:10 29.400 - 29.500 MHz
Uribyol 2 24 Apr 13:53:17 13:57:58 36° 63° (ENE) 14:02:41 436.500 FM
AO-Echo 24 Apr 13:56:51 14:01:17 30° 62° (ENE) 14:05:36 ?
FUNcube-1 24 Apr 14:06:24 14:08:57 16° 302° (WNW) 14:11:31 145.950 - 145.970 MHz USB
TMSAT-1 24 Apr 14:07:18 14:10:11 15° 51° (NE) 14:13:04 436.925 FM
RS-15 24 Apr 14:24:48 14:35:40 63° 36° (NE) 14:46:40 29.354 - 29.394 USB, Beacon 29.352 USB
HO-68 24 Apr 14:25:29 14:28:28 13° 325° (NW) 14:31:27 435.675 MHz FM
ISS 24 Apr 14:31:38 14:33:59 18° 142° (SE) 14:36:21 145.800 FM
AO-27 24 Apr 14:35:49 14:41:00 74° 71° (ENE) 14:46:11 436.795 MHz FM
Oscar 19 24 Apr 14:37:23 14:42:31 66° 258° (WSW) 14:47:42 437.125 CW, 437.150 USB
ITAMSAT 1 24 Apr 14:45:02 14:50:13 85° 73° (ENE) 14:55:26 435.822 SSB
Oscar 16 24 Apr 14:46:51 14:51:52 52° 260° (W) 14:56:58 437.025 USB, Beacon 2401.1428
Saudisat 1A 24 Apr 14:58:07 15:00:42 15° 355° (N) 15:03:16 436.775 MHz
Gurwin Techsat 1B 24 Apr 14:59:43 15:04:42 44° 65° (ENE) 15:09:44 435.225 FM
JAS-1B 24 Apr 15:00:49 15:06:34 28° 58° (ENE) 15:11:41 435.800 - 435.900 CW/SSB
SO-50 24 Apr 15:23:35 15:27:47 41° 122° (ESE) 15:32:02 436.795 FM
OPAL 24 Apr 15:26:33 15:29:49 17° 90° (E) 15:33:03 ?
Uribyol 2 24 Apr 15:32:37 15:37:26 39° 263° (W) 15:42:18 436.500 FM
AO-Echo 24 Apr 15:34:56 15:39:54 47° 261° (W) 15:44:45 ?
AO-7 24 Apr 15:36:13 15:43:40 39° 52° (NE) 15:51:08 29.400 - 29.500 MHz
TMSAT-1 24 Apr 15:43:58 15:49:14 71° 71° (ENE) 15:54:32 436.925 FM
Uosat F 24 Apr 15:58:25 16:03:05 40° 65° (ENE) 16:07:46 435.120 FM
ISS 24 Apr 16:06:57 16:10:16 64° 161° (SSE) 16:13:36 145.800 FM
AO-27 24 Apr 16:17:28 16:21:06 19° 271° (W) 16:24:44 436.795 MHz FM
Oscar 19 24 Apr 16:21:49 16:22:54 11° 277° (W) 16:23:59 437.125 CW, 437.150 USB
ITAMSAT 1 24 Apr 16:27:15 16:30:26 16° 272° (W) 16:33:37 435.822 SSB
RS-15 24 Apr 16:37:32 16:48:02 56° 243° (WSW) 16:58:46 29.354 - 29.394 USB, Beacon 29.352 USB
Saudisat 1A 24 Apr 16:38:41 16:41:55 19° 20° (NNE) 16:45:08 436.775 MHz
Gurwin Techsat 1B 24 Apr 16:40:01 16:44:49 34° 265° (W) 16:49:38 435.225 FM
JAS-1B 24 Apr 16:49:31 16:56:55 71° 256° (WSW) 17:03:11 435.800 - 435.900 CW/SSB
OPAL 24 Apr 17:04:07 17:09:23 87° 289° (WNW) 17:14:37 ?
SO-50 24 Apr 17:04:08 17:08:23 40° 323° (NW) 17:12:43 436.795 FM
UOSAT-12 24 Apr 17:14:58 17:19:04 33° 119° (ESE) 17:23:15 437.025 FM, 437.400 FM
TMSAT-1 24 Apr 17:25:49 17:29:43 21° 271° (W) 17:33:37 436.925 FM
AO-7 24 Apr 17:27:52 17:36:05 67° 254° (WSW) 17:44:23 29.400 - 29.500 MHz
Uosat F 24 Apr 17:37:25 17:41:58 34° 264° (W) 17:46:31 435.120 FM
ISS 24 Apr 17:43:38 17:46:59 80° 1° (N) 17:50:21 145.800 FM
Hamsat 24 Apr 18:16:46 18:20:39 36° 67° (ENE) 18:24:36 145.90 MHz
Saudisat 1A 24 Apr 18:18:03 18:22:26 55° 42° (NE) 18:26:46 436.775 MHz
OPAL 24 Apr 18:44:05 18:47:36 19° 309° (NW) 18:51:08 ?
JAS-1B 24 Apr 18:44:58 18:48:32 14° 274° (W) 18:51:52 435.800 - 435.900 CW/SSB
SO-50 24 Apr 18:47:04 18:50:08 17° 346° (NNW) 18:53:13 436.795 FM
RS-15 24 Apr 18:52:59 18:57:40 14° 267° (W) 19:02:25 29.354 - 29.394 USB, Beacon 29.352 USB
UOSAT-12 24 Apr 18:54:36 18:59:06 50° 320° (NW) 19:03:41 437.025 FM, 437.400 FM
SO-67 24 Apr 19:02:54 19:05:30 20° 64° (ENE) 19:08:06 435.3500 MHz FM
JAS-2 24 Apr 19:10:47 19:15:59 49° 67° (ENE) 19:20:59 435.800 - 435.900 CW/SSB, 435.910 FM
ISS 24 Apr 19:20:23 19:23:42 59° 201° (SSW) 19:27:00 145.800 FM
AO-7 24 Apr 19:25:48 19:30:33 16° 277° (W) 19:35:20 29.400 - 29.500 MHz
HO-68 24 Apr 19:37:13 19:42:05 20° 44° (NE) 19:46:58 435.675 MHz FM
STRAND 1 24 Apr 19:51:47 19:56:21 32° 95° (E) 20:00:54 ?
Hamsat 24 Apr 19:53:03 19:56:43 28° 266° (W) 20:00:27 145.90 MHz
Saudisat 1A 24 Apr 19:58:05 20:01:48 27° 242° (WSW) 20:05:28 436.775 MHz
SO-50 24 Apr 20:29:24 20:32:23 17° 11° (NNE) 20:35:24 436.795 FM
SO-67 24 Apr 20:35:10 20:38:27 37° 263° (W) 20:41:45 435.3500 MHz FM
UOSAT-12 24 Apr 20:36:54 20:40:18 20° 343° (NNW) 20:43:44 437.025 FM, 437.400 FM
JAS-2 24 Apr 20:56:47 21:01:25 28° 266° (W) 21:05:52 435.800 - 435.900 CW/SSB, 435.910 FM
ISS 24 Apr 20:57:45 20:59:56 16° 219° (SW) 21:02:07 145.800 FM
HO-68 24 Apr 21:21:34 21:28:38 68° 66° (ENE) 21:35:45 435.675 MHz FM
STRAND 1 24 Apr 21:30:52 21:35:41 43° 295° (WNW) 21:40:28 ?
Oscar 11 24 Apr 21:47:03 21:50:59 35° 66° (ENE) 21:54:57 145.825 FM, Beacon 2401.500 USB
FUNcube-1 24 Apr 21:56:00 21:58:40 17° 59° (ENE) 22:01:21 145.950 - 145.970 MHz USB
SO-50 24 Apr 22:09:56 22:14:12 36° 35° (NE) 22:18:32 436.795 FM
MaSat-1 24 Apr 22:11:32 22:14:06 54° 305° (NW) 22:16:32 437.345 MHz
UOSAT-12 24 Apr 22:19:06 22:22:08 17° 8° (N) 22:25:11 437.025 FM, 437.400 FM
HO-68 24 Apr 23:10:46 23:16:54 30° 267° (W) 23:23:06 435.675 MHz FM
Sapphire 24 Apr 23:19:01 23:21:44 14° 104° (ESE) 23:24:28 437.095 MHz 1200 baud AX-25 AFSK
Oscar 11 24 Apr 23:23:26 23:27:14 30° 265° (W) 23:31:05 145.825 FM, Beacon 2401.500 USB
FUNcube-1 24 Apr 23:30:31 23:34:40 67° 258° (WSW) 23:38:50 145.950 - 145.970 MHz USB
SO-50 24 Apr 23:50:28 23:54:58 51° 235° (SW) 23:59:32 436.795 FM
UOSAT-12 24 Apr 23:59:27 00:03:41 31° 31° (NNE) 00:07:55 437.025 FM, 437.400 FM
PCSat 25 Apr 00:00:50 00:05:31 31° 113° (ESE) 00:10:15 145.825 MHz
Sapphire 25 Apr 00:58:52 01:04:15 74° 123° (ESE) 01:09:41 437.095 MHz 1200 baud AX-25 AFSK
OPAL 25 Apr 01:11:15 01:12:54 12° 44° (NE) 01:14:34 ?
UOSAT-12 25 Apr 01:39:31 01:44:14 67° 233° (SW) 01:48:54 437.025 FM, 437.400 FM
PCSat 25 Apr 01:43:22 01:48:42 57° 313° (NW) 01:54:05 145.825 MHz
KITSAT 1 25 Apr 01:44:43 01:50:47 24° 104° (ESE) 01:56:52 435.175 FM
Sapphire 25 Apr 02:43:26 02:48:12 30° 326° (NW) 02:53:00 437.095 MHz 1200 baud AX-25 AFSK
Oscar 19 25 Apr 02:43:58 02:48:34 31° 94° (E) 02:53:08 437.125 CW, 437.150 USB
AO-27 25 Apr 02:44:36 02:48:06 18° 89° (E) 02:51:35 436.795 MHz FM
OPAL 25 Apr 02:45:46 02:50:41 50° 64° (ENE) 02:55:40 ?
Oscar 16 25 Apr 02:53:13 02:58:05 38° 97° (E) 03:02:55 437.025 USB, Beacon 2401.1428
ITAMSAT 1 25 Apr 02:53:25 02:57:18 21° 90° (E) 03:01:09 435.822 SSB
Gurwin Techsat 1B 25 Apr 03:12:55 03:14:26 11° 83° (E) 03:15:57 435.225 FM
UOSAT-12 25 Apr 03:21:54 03:23:32 12° 252° (WSW) 03:25:09 437.025 FM, 437.400 FM
PCSat 25 Apr 03:29:15 03:33:16 21° 337° (NNW) 03:37:19 145.825 MHz
AO-Echo 25 Apr 03:36:59 03:41:25 37° 97° (E) 03:45:45 ?
KITSAT 1 25 Apr 03:36:59 03:45:07 84° 126° (SE) 03:53:18 435.175 FM
Uribyol 2 25 Apr 03:39:34 03:44:38 50° 100° (E) 03:49:40 436.500 FM
TMSAT-1 25 Apr 03:55:24 03:59:09 19° 89° (E) 04:02:53 436.925 FM
AO-27 25 Apr 04:23:02 04:28:15 78° 288° (WNW) 04:33:25 436.795 MHz FM
Oscar 19 25 Apr 04:23:08 04:28:06 47° 294° (WNW) 04:33:03 437.125 CW, 437.150 USB
OPAL 25 Apr 04:25:27 04:29:49 28° 264° (W) 04:34:16 ?
JAS-1B 25 Apr 04:28:47 04:32:56 20° 90° (E) 04:37:12 435.800 - 435.900 CW/SSB
Sapphire 25 Apr 04:30:10 04:33:24 16° 351° (N) 04:36:38 437.095 MHz 1200 baud AX-25 AFSK
ITAMSAT 1 25 Apr 04:32:08 04:37:18 68° 290° (WNW) 04:42:26 435.822 SSB
Oscar 16 25 Apr 04:32:40 04:37:27 38° 296° (WNW) 04:42:13 437.025 USB, Beacon 2401.1428
Gurwin Techsat 1B 25 Apr 04:50:07 04:55:27 68° 103° (ESE) 05:00:44 435.225 FM
MaSat-1 25 Apr 04:51:44 04:53:25 14° 45° (NE) 04:55:13 437.345 MHz
RS-15 25 Apr 05:01:30 05:07:06 15° 95° (E) 05:12:36 29.354 - 29.394 USB, Beacon 29.352 USB
